| time (UTC) | temp F | wind direction | speed knots | gust knots | rain 1hr in | rain 24hr in | rain mn in | humidity % | barometer mb |
| 20260503055052 | 36 | 0.0 | 0.0 | 0.00 | 0.00 | 0.00 | 79 | 1011.1 | |
| 20260503054025 | 36 | 0.0 | 0.0 | 0.00 | 0.00 | 0.00 | 78 | 1011.1 | |
| 20260503053020 | 36 | 0.0 | 0.0 | 0.00 | 0.00 | 0.00 | 78 | 1011.3 | |
| 20260503052036 | 36 | 0.0 | 0.0 | 0.00 | 0.00 | 0.00 | 78 | 1011.3 | |
| 20260503051031 | 37 | 0.0 | 0.0 | 0.00 | 0.00 | 0.00 | 77 | 1011.3 | |
| 20260503050026 | 37 | 0.0 | 0.0 | 0.00 | 0.00 | 0.00 | 77 | 1011.4 | |
| 20260503045022 | 37 | 0.0 | 0.0 | 0.00 | 0.00 | 0.00 | 76 | 1011.4 | |
| 20260503044018 | 37 | 0.0 | 0.0 | 0.00 | 0.00 | 0.00 | 76 | 1011.4 | |
| 20260503043033 | 37 | 0.0 | 0.0 | 0.00 | 0.00 | 0.00 | 76 | 1011.5 | |
| 20260503042028 | 37 | 0.0 | 0.0 | 0.00 | 0.00 | 0.00 | 75 | 1011.6 | |
| 20260503041023 | 37 | 0.0 | 0.0 | 0.00 | 0.00 | 0.00 | 74 | 1011.8 | |
| 20260503040019 | 37 | 62 | 0.0 | 0.9 | 0.00 | 0.00 | 0.00 | 74 | 1011.8 |
| 20260503035035 | 38 | 79 | 0.0 | 1.7 | 0.00 | 0.00 | 0.00 | 73 | 1011.8 |
| 20260503034030 | 38 | 0.0 | 0.0 | 0.00 | 0.00 | 0.00 | 72 | 1012.0 | |
| 20260503033025 | 38 | 0.0 | 0.0 | 0.00 | 0.00 | 0.00 | 71 | 1012.0 | |
| 20260503032021 | 39 | 0.0 | 0.0 | 0.00 | 0.00 | 0.00 | 70 | 1012.2 | |
| 20260503031037 | 40 | 0.0 | 0.0 | 0.00 | 0.00 | 0.00 | 70 | 1012.3 | |
| 20260503030034 | 40 | 0.0 | 0.0 | 0.00 | 0.00 | 0.00 | 69 | 1012.3 | |
| 20260503025028 | 41 | 0.0 | 0.0 | 0.00 | 0.00 | 0.00 | 69 | 1012.4 | |
| 20260503024024 | 41 | 0.0 | 0.0 | 0.00 | 0.00 | 0.00 | 67 | 1012.2 | |
| 20260503023019 | 42 | 0.0 | 0.0 | 0.00 | 0.00 | 0.00 | 67 | 1012.4 | |
| 20260503022057 | 43 | 0.0 | 0.0 | 0.00 | 0.00 | 0.00 | 66 | 1012.3 | |
| 20260503021029 | 44 | 0.0 | 0.0 | 0.00 | 0.00 | 0.00 | 65 | 1012.5 | |
| 20260503020206 | 45 | 100 | 0.9 | 1.7 | 0.00 | 0.00 | 0.00 | 64 | 1012.4 |
| 20260503015022 | 46 | 89 | 0.9 | 1.7 | 0.00 | 0.00 | 0.00 | 64 | 1012.4 |
| 20260503014018 | 47 | 80 | 1.7 | 3.5 | 0.00 | 0.00 | 0.00 | 63 | 1012.4 |
| 20260503013053 | 48 | 88 | 1.7 | 3.5 | 0.00 | 0.00 | 0.00 | 63 | 1012.4 |
| 20260503012049 | 49 | 85 | 2.6 | 3.5 | 0.00 | 0.00 | 0.00 | 61 | 1012.3 |
| 20260503011025 | 50 | 84 | 2.6 | 5.2 | 0.00 | 0.00 | 0.00 | 56 | 1012.3 |
| 20260503010021 | 52 | 84 | 2.6 | 3.5 | 0.00 | 0.00 | 0.00 | 53 | 1012.4 |
| 20260503005036 | 54 | 84 | 1.7 | 2.6 | 0.00 | 0.00 | 0.00 | 45 | 1012.3 |
| 20260503004031 | 55 | 202 | 1.7 | 7.0 | 0.00 | 0.00 | 0.00 | 43 | 1012.2 |
| 20260503003027 | 56 | 187 | 1.7 | 3.5 | 0.00 | 0.00 | 0.00 | 40 | 1012.5 |
| 20260503002023 | 57 | 223 | 1.7 | 5.2 | 0.00 | 0.00 | 0.00 | 40 | 1012.5 |
| 20260503001019 | 59 | 213 | 0.9 | 2.6 | 0.00 | 0.00 | 0.00 | 38 | 1012.7 |
| 20260503000054 | 60 | 244 | 0.9 | 2.6 | 0.00 | 0.00 | 0.00 | 37 | 1012.7 |
| 20260502235050 | 61 | 228 | 3.5 | 9.6 | 0.00 | 0.00 | 0.00 | 36 | 1012.7 |
| 20260502234046 | 61 | 272 | 2.6 | 6.1 | 0.00 | 0.00 | 0.00 | 36 | 1012.8 |
| 20260502233021 | 62 | 230 | 3.5 | 7.8 | 0.00 | 0.00 | 0.00 | 36 | 1013.1 |
| 20260502232036 | 62 | 222 | 6.1 | 13.0 | 0.00 | 0.00 | 0.00 | 35 | 1013.1 |
| 20260502231032 | 63 | 226 | 4.3 | 8.7 | 0.00 | 0.00 | 0.00 | 35 | 1013.0 |
| 20260502230028 | 64 | 262 | 4.3 | 7.8 | 0.00 | 0.00 | 0.00 | 34 | 1013.1 |
| 20260502225044 | 65 | 229 | 4.3 | 8.7 | 0.00 | 0.00 | 0.00 | 34 | 1013.5 |
| 20260502224039 | 65 | 274 | 4.3 | 8.7 | 0.00 | 0.00 | 0.00 | 33 | 1013.5 |
| 20260502223034 | 66 | 236 | 5.2 | 12.2 | 0.00 | 0.00 | 0.00 | 32 | 1013.5 |
| 20260502222029 | 67 | 246 | 4.3 | 9.6 | 0.00 | 0.00 | 0.00 | 32 | 1013.6 |
| 20260502221025 | 68 | 270 | 5.2 | 11.3 | 0.00 | 0.00 | 0.00 | 31 | 1013.6 |
| 20260502220020 | 69 | 256 | 5.2 | 9.6 | 0.00 | 0.00 | 0.00 | 31 | 1013.9 |
| 20260502215016 | 69 | 243 | 4.3 | 8.7 | 0.00 | 0.00 | 0.00 | 33 | 1013.8 |
| 20260502214032 | 69 | 225 | 7.0 | 13.9 | 0.00 | 0.00 | 0.00 | 31 | 1014.1 |
| 20260502213028 | 69 | 253 | 5.2 | 9.6 | 0.00 | 0.00 | 0.00 | 33 | 1014.2 |
| 20260502212024 | 69 | 242 | 2.6 | 7.8 | 0.00 | 0.00 | 0.00 | 32 | 1014.1 |
| 20260502211019 | 70 | 272 | 3.5 | 8.7 | 0.00 | 0.00 | 0.00 | 33 | 1014.3 |
| 20260502210035 | 69 | 244 | 6.1 | 13.0 | 0.00 | 0.00 | 0.00 | 32 | 1014.4 |
| 20260502205030 | 68 | 269 | 5.2 | 9.6 | 0.00 | 0.00 | 0.00 | 34 | 1014.4 |
| 20260502204026 | 69 | 234 | 6.1 | 11.3 | 0.00 | 0.00 | 0.00 | 32 | 1014.6 |
| 20260502203021 | 70 | 274 | 4.3 | 9.6 | 0.00 | 0.00 | 0.00 | 32 | 1014.8 |
| 20260502202018 | 69 | 247 | 4.3 | 11.3 | 0.00 | 0.00 | 0.00 | 36 | 1014.9 |
| 20260502201034 | 66 | 268 | 3.5 | 6.1 | 0.00 | 0.00 | 0.00 | 34 | 1015.1 |
| 20260502200028 | 66 | 237 | 2.6 | 7.8 | 0.00 | 0.00 | 0.00 | 37 | 1015.1 |
| 20260502195023 | 66 | 246 | 3.5 | 7.8 | 0.00 | 0.00 | 0.00 | 35 | 1015.3 |
| 20260502194018 | 67 | 280 | 5.2 | 13.0 | 0.00 | 0.00 | 0.00 | 33 | 1015.5 |
| 20260502193033 | 66 | 228 | 6.1 | 13.0 | 0.00 | 0.00 | 0.00 | 35 | 1015.7 |
| 20260502192031 | 64 | 236 | 4.3 | 13.0 | 0.00 | 0.00 | 0.00 | 37 | 1015.8 |
| 20260502191025 | 66 | 255 | 5.2 | 8.7 | 0.00 | 0.00 | 0.00 | 36 | 1015.8 |
| 20260502190020 | 66 | 228 | 4.3 | 11.3 | 0.00 | 0.00 | 0.00 | 37 | 1015.8 |
| 20260502185016 | 64 | 271 | 3.5 | 7.0 | 0.00 | 0.00 | 0.00 | 37 | 1016.1 |
| 20260502184031 | 62 | 239 | 4.3 | 14.8 | 0.00 | 0.00 | 0.00 | 38 | 1016.3 |
| 20260502183025 | 64 | 248 | 4.3 | 11.3 | 0.00 | 0.00 | 0.00 | 36 | 1016.4 |
| 20260502182020 | 66 | 251 | 4.3 | 9.6 | 0.00 | 0.00 | 0.00 | 36 | 1016.4 |
| 20260502181017 | 64 | 239 | 3.5 | 7.8 | 0.00 | 0.00 | 0.00 | 37 | 1016.5 |
| 20260502164035 | 61 | 240 | 4.3 | 7.8 | 0.00 | 0.00 | 0.00 | 41 | 1017.3 |
| 20260502163031 | 60 | 225 | 4.3 | 9.6 | 0.00 | 0.00 | 0.00 | 41 | 1017.3 |
| 20260502162025 | 62 | 260 | 4.3 | 12.2 | 0.00 | 0.00 | 0.00 | 42 | 1017.5 |
| 20260502161021 | 61 | 238 | 5.2 | 12.2 | 0.00 | 0.00 | 0.00 | 40 | 1017.6 |
| 20260502152017 | 58 | 270 | 5.2 | 11.3 | 0.00 | 0.00 | 0.00 | 43 | 1018.0 |
| 20260502151034 | 58 | 276 | 3.5 | 8.7 | 0.00 | 0.00 | 0.00 | 47 | 1018.0 |
| 20260502123035 | 34 | 0.0 | 0.0 | 0.00 | 0.00 | 0.00 | 84 | 1019.0 | |
| 20260502122031 | 33 | 0.0 | 0.0 | 0.00 | 0.00 | 0.00 | 84 | 1019.0 | |
| 20260502121027 | 33 | 0.0 | 0.0 | 0.00 | 0.00 | 0.00 | 84 | 1019.1 | |
| 20260502115018 | 31 | 0.0 | 0.0 | 0.00 | 0.00 | 0.00 | 83 | 1019.1 | |
| 20260502114033 | 31 | 0.0 | 0.0 | 0.00 | 0.00 | 0.00 | 83 | 1018.9 | |
| 20260502113028 | 30 | 0.0 | 0.0 | 0.00 | 0.00 | 0.00 | 83 | 1018.9 | |
| 20260502112024 | 30 | 0.0 | 0.0 | 0.00 | 0.00 | 0.00 | 83 | 1018.8 | |
| 20260502111039 | 29 | 0.0 | 0.0 | 0.00 | 0.00 | 0.00 | 83 | 1018.8 | |
| 20260502110034 | 29 | 0.0 | 0.0 | 0.00 | 0.00 | 0.00 | 83 | 1018.8 | |
| 20260502105030 | 28 | 0.0 | 0.0 | 0.00 | 0.00 | 0.00 | 83 | 1018.9 | |
| 20260502104026 | 28 | 0.0 | 0.0 | 0.00 | 0.00 | 0.00 | 82 | 1018.9 | |
| 20260502103021 | 28 | 0.0 | 0.0 | 0.00 | 0.00 | 0.00 | 82 | 1018.8 | |
| 20260502102037 | 29 | 0.0 | 0.0 | 0.00 | 0.00 | 0.00 | 82 | 1018.7 | |
| 20260502101031 | 29 | 0.0 | 0.0 | 0.00 | 0.00 | 0.00 | 82 | 1018.7 | |
| 20260502091026 | 29 | 0.0 | 0.0 | 0.00 | 0.00 | 0.00 | 81 | 1018.8 | |
| 20260502071052 | 27 | 0.0 | 0.0 | 0.00 | 0.00 | 0.00 | 80 | 1018.9 |